Home   Weather   Exeter   Past weeks

Flag for United Kingdom Past Weather in Exeter, England, United Kingdom — Yesterday and Last 2 Weeks

Now
61 °F

Passing clouds.


Feels Like: 61 °F
Forecast: 56 / 65 °F
Wind: 5 mph from South

Location: Exeter Airport

Current Time: Jul 26, 2017 at 1:42:57 am

Latest Report: Jul 26, 2017 at 1:20 am


Visibility: N/A

Pressure: 29.86 "Hg

Humidity: 88%

Dew Point: 57 °F

Location of ExeterLocation

Past Weather in Exeter — Graph

°F

Exeter Temperature Yesterday

Maximum temperature yesterday: 75 °F (at 5:50 pm)
Minimum temperature yesterday: 57 °F (at 12:20 am)
Average temperature yesterday: 66 °F

High & Low Weather Summary for the Past Weeks

 TemperatureHumidityPressure
High77 °F (Jul 18, 11:20 am)100% (Jul 11, 3:50 pm)30.24 "Hg (Jul 11, 3:50 pm)
Low48 °F (Jul 13, 5:50 am)39% (Jul 17, 3:20 pm)29.56 "Hg (Jul 21, 2:50 pm)
Average63 °F80%29.95 "Hg
* Reported Jul 11 12:20 am — Jul 26 12:20 am, Exeter. Weather by CustomWeather, © 2017

Note: Actual official high and low records may vary slightly from our data, if they occured in-between our weather recording intervals... More about our weather records

Advertising

Exeter Weather History for the Previous 24 Hours

Scroll right to see more
 ConditionsComfort  
Time TempWeatherWind HumidityBarometerVisibility
12:20 am
Wed, Jul 26
61 °FPassing clouds.6 mph83%29.89 "HgN/A
11:20 pm
Tue, Jul 25
63 °FPassing clouds.2 mph73%29.92 "HgN/A
10:50 pm63 °FPassing clouds.3 mph77%29.92 "HgN/A
10:20 pm63 °FPassing clouds.5 mph77%29.92 "HgN/A
9:50 pm64 °FPassing clouds.6 mph73%29.92 "HgN/A
9:20 pm66 °FPassing clouds.7 mph68%29.92 "HgN/A
8:50 pm68 °FPassing clouds.5 mph69%29.92 "HgN/A
8:20 pm70 °FPassing clouds.3 mph64%29.92 "HgN/A
7:50 pm70 °FScattered clouds.6 mph64%29.92 "HgN/A
7:20 pm72 °FScattered clouds.7 mph61%29.92 "HgN/A
6:50 pm73 °FScattered clouds.8 mph57%29.92 "HgN/A
6:20 pm75 °FScattered clouds.9 mph57%29.92 "HgN/A
5:50 pm75 °FScattered clouds.12 mph57%29.95 "HgN/A
5:20 pm73 °FScattered clouds.9 mph61%29.95 "HgN/A
4:50 pm72 °FScattered clouds.6 mph69%29.95 "HgN/A
4:20 pm73 °FScattered clouds.8 mph65%29.98 "HgN/A
3:50 pm72 °FScattered clouds.9 mph69%29.98 "HgN/A
3:20 pm73 °FScattered clouds.12 mph65%29.98 "HgN/A
2:50 pm73 °FScattered clouds.14 mph61%29.98 "HgN/A
2:20 pm72 °FScattered clouds.13 mph65%29.98 "HgN/A
1:50 pm73 °FPassing clouds.14 mph61%30.01 "HgN/A
1:20 pm73 °FScattered clouds.10 mph65%30.01 "HgN/A
12:50 pm73 °FScattered clouds.6 mph57%30.01 "HgN/A
12:20 pm73 °FPassing clouds.3 mph61%30.01 "HgN/A
11:50 am72 °FPassing clouds.5 mph65%30.04 "HgN/A
11:20 am72 °FPassing clouds.5 mph65%30.04 "HgN/A
10:50 am68 °FPassing clouds.2 mph73%30.04 "HgN/A
10:20 am68 °FPassing clouds.2 mph73%30.04 "HgN/A
9:50 am66 °FPassing clouds.2 mph78%30.04 "HgN/A
9:20 am64 °FPassing clouds.2 mph83%30.04 "HgN/A
8:50 am61 °FPassing clouds.3 mph88%30.07 "HgN/A
8:20 am59 °FScattered clouds.2 mph94%30.07 "HgN/A
7:50 am57 °FFog.5 mph100%30.07 "Hg2 mi
7:20 am57 °FFog.5 mph100%30.07 "Hg2 mi
6:50 am57 °FFog.8 mph94%30.07 "Hg2 mi
6:20 am57 °FFog.5 mph94%30.07 "Hg2 mi
5:50 am57 °FFog.3 mph94%30.07 "Hg3 mi
2:20 am57 °FPassing clouds.5 mph94%30.09 "HgN/A
1:50 am57 °FClear.3 mph94%30.09 "Hg10 mi
1:20 am57 °FClear.2 mph94%30.09 "Hg10 mi
Weather by CustomWeather, © 2017

See weather overviewHow to use our weather pages